Météo par heure à Jugowa

Ce jour, 20 Juin, Dimanche

Heure Température Précipitation Vent Pression Humidité
00:00 +23°C° 0 mm 1 m/s 737 mmHg 70%
01:00 +22°C° 0 mm 1 m/s 737 mmHg 70%
02:00 +22°C° 0 mm 1 m/s 737 mmHg 71%
03:00 +21°C° 0 mm 2 m/s 737 mmHg 72%
04:00 +20°C° 0 mm 2 m/s 736 mmHg 73%
05:00 +23°C° 0 mm 2 m/s 736 mmHg 70%
06:00 +25°C° 0 mm 2 m/s 736 mmHg 67%
07:00 +27°C° 0 mm 2 m/s 737 mmHg 64%
08:00 +28°C° 0 mm 2 m/s 737 mmHg 59%
09:00 +29°C° 0 mm 2 m/s 737 mmHg 53%
10:00 +31°C° 0 mm 2 m/s 737 mmHg 48%
11:00 +32°C° 0 mm 2 m/s 737 mmHg 45%
12:00 +32°C° 0 mm 2 m/s 736 mmHg 42%
13:00 +34°C° 0 mm 2 m/s 736 mmHg 39%
14:00 +34°C° 0 mm 2 m/s 736 mmHg 40%
15:00 +34°C° 0 mm 2 m/s 736 mmHg 41%
16:00 +34°C° 0 mm 2 m/s 736 mmHg 42%
17:00 +31°C° 0 mm 2 m/s 735 mmHg 52%
18:00 +29°C° 0 mm 2 m/s 735 mmHg 62%
19:00 +28°C° 0 mm 3 m/s 734 mmHg 72%
20:00 +26°C° 0 mm 2 m/s 734 mmHg 73%
21:00 +25°C° 0 mm 2 m/s 734 mmHg 75%
22:00 +24°C° 0 mm 2 m/s 734 mmHg 77%
23:00 +23°C° 0 mm 2 m/s 734 mmHg 78%

Demain, 21 Juin, Lundi

Heure Température Précipitation Vent Pression Humidité
00:00 +23°C° 0 mm 2 m/s 734 mmHg 79%
01:00 +21°C° 0 mm 2 m/s 733 mmHg 80%
02:00 +21°C° 0 mm 2 m/s 733 mmHg 80%
03:00 +20°C° 0 mm 2 m/s 733 mmHg 81%
04:00 +20°C° 0 mm 2 m/s 733 mmHg 81%
05:00 +23°C° 0 mm 2 m/s 733 mmHg 76%
06:00 +25°C° 0 mm 2 m/s 733 mmHg 71%
07:00 +26°C° 0 mm 2 m/s 733 mmHg 66%
08:00 +28°C° 0 mm 2 m/s 733 mmHg 62%
09:00 +29°C° 0 mm 3 m/s 733 mmHg 57%
10:00 +31°C° 0 mm 3 m/s 733 mmHg 53%
11:00 +31°C° 0.1 mm 3 m/s 733 mmHg 52%
12:00 +31°C° 0.1 mm 3 m/s 733 mmHg 52%
13:00 +33°C° 0.1 mm 3 m/s 733 mmHg 51%
14:00 +30°C° 0.6 mm 3 m/s 733 mmHg 58%
15:00 +29°C° 0.6 mm 3 m/s 733 mmHg 64%
16:00 +28°C° 0.6 mm 3 m/s 733 mmHg 71%
17:00 +26°C° 3.7 mm 3 m/s 733 mmHg 78%
18:00 +24°C° 3.7 mm 3 m/s 734 mmHg 86%
19:00 +21°C° 3.7 mm 3 m/s 734 mmHg 93%
20:00 +20°C° 1.7 mm 2 m/s 734 mmHg 94%
21:00 +21°C° 1.7 mm 1 m/s 734 mmHg 96%
22:00 +18°C° 1.7 mm 0 m/s 734 mmHg 97%
23:00 +20°C° 0 mm 1 m/s 734 mmHg 96%

Après-demain, 22 Juin, Mardi

Heure Température Précipitation Vent Pression Humidité
00:00 +20°C° 0 mm 1 m/s 734 mmHg 96%
01:00 +19°C° 0 mm 1 m/s 734 mmHg 95%
02:00 +19°C° 0 mm 1 m/s 734 mmHg 95%
03:00 +19°C° 0 mm 1 m/s 735 mmHg 95%
04:00 +19°C° 0 mm 1 m/s 735 mmHg 95%
05:00 +20°C° 0 mm 1 m/s 735 mmHg 92%
06:00 +21°C° 0 mm 1 m/s 736 mmHg 89%
07:00 +21°C° 0 mm 2 m/s 736 mmHg 86%
08:00 +23°C° 0 mm 2 m/s 736 mmHg 82%
09:00 +24°C° 0 mm 2 m/s 736 mmHg 78%
10:00 +25°C° 0 mm 3 m/s 737 mmHg 73%
11:00 +25°C° 0 mm 2 m/s 737 mmHg 72%
12:00 +26°C° 0 mm 2 m/s 737 mmHg 71%
13:00 +26°C° 0 mm 2 m/s 737 mmHg 71%
14:00 +26°C° 0 mm 2 m/s 737 mmHg 69%
15:00 +27°C° 0 mm 2 m/s 737 mmHg 68%
16:00 +27°C° 0 mm 3 m/s 737 mmHg 66%
17:00 +26°C° 0.1 mm 2 m/s 737 mmHg 72%
18:00 +25°C° 0.1 mm 2 m/s 737 mmHg 77%
19:00 +25°C° 0.1 mm 2 m/s 736 mmHg 82%
20:00 +24°C° 0 mm 2 m/s 736 mmHg 83%
21:00 +23°C° 0 mm 2 m/s 736 mmHg 84%
22:00 +21°C° 0 mm 2 m/s 736 mmHg 85%
23:00 +21°C° 0.8 mm 2 m/s 736 mmHg 88%

23 Juin, Mercredi

Heure Température Précipitation Vent Pression Humidité
00:00 +20°C° 0.8 mm 2 m/s 736 mmHg 91%
01:00 +20°C° 0.8 mm 1 m/s 736 mmHg 94%
02:00 +20°C° 2.7 mm 1 m/s 736 mmHg 94%
03:00 +19°C° 2.7 mm 2 m/s 735 mmHg 94%
04:00 +18°C° 2.7 mm 2 m/s 735 mmHg 94%
05:00 +19°C° 0 mm 2 m/s 736 mmHg 90%
06:00 +20°C° 0 mm 2 m/s 736 mmHg 87%
07:00 +20°C° 0 mm 3 m/s 737 mmHg 84%
08:00 +21°C° 0 mm 3 m/s 738 mmHg 77%
09:00 +22°C° 0 mm 3 m/s 738 mmHg 71%
10:00 +25°C° 0 mm 3 m/s 738 mmHg 65%
11:00 +23°C° 0 mm 4 m/s 739 mmHg 66%
12:00 +23°C° 0 mm 5 m/s 739 mmHg 68%
13:00 +23°C° 0 mm 5 m/s 739 mmHg 69%
14:00 +22°C° 0 mm 5 m/s 740 mmHg 71%
15:00 +21°C° 0 mm 5 m/s 740 mmHg 73%
16:00 +20°C° 0 mm 5 m/s 741 mmHg 75%
17:00 +19°C° 0 mm 5 m/s 741 mmHg 77%
18:00 +19°C° 0 mm 4 m/s 741 mmHg 79%
19:00 +18°C° 0 mm 4 m/s 741 mmHg 81%
20:00 +17°C° 0 mm 3 m/s 741 mmHg 82%
21:00 +17°C° 0 mm 3 m/s 742 mmHg 82%
22:00 +16°C° 0 mm 2 m/s 742 mmHg 83%
23:00 +16°C° 0 mm 2 m/s 742 mmHg 82%

24 Juin, Jeudi

Heure Température Précipitation Vent Pression Humidité
00:00 +16°C° 0 mm 2 m/s 742 mmHg 82%
01:00 +16°C° 0 mm 2 m/s 742 mmHg 82%
02:00 +16°C° 0 mm 1 m/s 741 mmHg 82%
03:00 +16°C° 0 mm 1 m/s 741 mmHg 83%
04:00 +16°C° 0 mm 1 m/s 741 mmHg 83%
05:00 +16°C° 0.1 mm 1 m/s 741 mmHg 84%
06:00 +16°C° 0.1 mm 1 m/s 741 mmHg 85%
07:00 +16°C° 0.1 mm 2 m/s 741 mmHg 86%
08:00 +17°C° 0.3 mm 2 m/s 741 mmHg 87%
09:00 +17°C° 0.3 mm 2 m/s 741 mmHg 87%
10:00 +17°C° 0.3 mm 2 m/s 741 mmHg 88%
11:00 +17°C° 0.1 mm 2 m/s 741 mmHg 88%
12:00 +17°C° 0.1 mm 2 m/s 741 mmHg 88%
13:00 +18°C° 0.1 mm 1 m/s 741 mmHg 89%
14:00 +18°C° 0 mm 1 m/s 741 mmHg 89%
15:00 +17°C° 0 mm 2 m/s 741 mmHg 90%
16:00 +17°C° 0 mm 2 m/s 741 mmHg 91%
17:00 +17°C° 0 mm 2 m/s 741 mmHg 92%
18:00 +16°C° 0 mm 2 m/s 741 mmHg 93%
19:00 +16°C° 0 mm 2 m/s 741 mmHg 94%
20:00 +16°C° 0 mm 1 m/s 741 mmHg 95%
21:00 +16°C° 0 mm 1 m/s 741 mmHg 95%
22:00 +15°C° 0 mm 1 m/s 742 mmHg 96%
23:00 +15°C° 0 mm 1 m/s 741 mmHg 96%

25 Juin, Vendredi

Heure Température Précipitation Vent Pression Humidité
00:00 +15°C° 0 mm 1 m/s 741 mmHg 97%
01:00 +14°C° 0 mm 1 m/s 741 mmHg 97%
02:00 +14°C° 0 mm 1 m/s 741 mmHg 97%
03:00 +15°C° 0 mm 2 m/s 741 mmHg 97%
04:00 +15°C° 0 mm 2 m/s 741 mmHg 97%
05:00 +15°C° 0 mm 2 m/s 741 mmHg 96%
06:00 +15°C° 0 mm 2 m/s 741 mmHg 94%
07:00 +15°C° 0 mm 2 m/s 741 mmHg 93%
08:00 +16°C° 0 mm 2 m/s 741 mmHg 91%
09:00 +16°C° 0 mm 2 m/s 742 mmHg 90%
10:00 +17°C° 0 mm 2 m/s 742 mmHg 88%
11:00 +18°C° 0.1 mm 2 m/s 742 mmHg 84%
12:00 +19°C° 0.1 mm 2 m/s 741 mmHg 79%
13:00 +20°C° 0.1 mm 2 m/s 741 mmHg 75%
14:00 +20°C° 0.1 mm 2 m/s 741 mmHg 73%
15:00 +21°C° 0.1 mm 2 m/s 741 mmHg 71%
16:00 +21°C° 0.1 mm 2 m/s 741 mmHg 70%
17:00 +20°C° 0.5 mm 2 m/s 741 mmHg 77%
18:00 +19°C° 0.5 mm 3 m/s 741 mmHg 83%
19:00 +18°C° 0.5 mm 3 m/s 740 mmHg 90%
20:00 +17°C° 0.1 mm 3 m/s 741 mmHg 92%
21:00 +16°C° 0.1 mm 2 m/s 741 mmHg 94%
22:00 +16°C° 0.1 mm 2 m/s 741 mmHg 95%
23:00 +16°C° 0.2 mm 2 m/s 741 mmHg 96%
Voir plus

Nous avons besoin de votre consentement

Meteoprog et ses fournisseurs de services peuvent stocker et accéder à des données personnelles telles que des cookies, des identifiants d'appareils ou d'autres technologies similaires sur votre appareil et traiter ces données pour personnaliser le contenu et les publicités, ainsi que pour fournir des fonctionnalités de médias sociaux et analyser le trafic.

  • Stocker et/ou accéder à des informations sur votre appareil

    Des cookies, des identifiants d'appareils ou d'autres informations peuvent être stockés ou accessibles sur votre appareil aux fins indiquées ci-dessus.

  • Annonces et contenus personnalisés, mesure des annonces et des contenus, connaissance de l'audience et développement de produits

    Les annonces et le contenu peuvent être personnalisés en fonction d'un profil. D'autres données peuvent être ajoutées pour mieux personnaliser les annonces et le contenu. Les performances des publicités et du contenu peuvent être mesurées. Il est possible d'obtenir des informations sur le public qui a vu les publicités et le contenu. Ces données peuvent être utilisées pour développer ou améliorer l'expérience de l'utilisateur, les systèmes et les logiciels.

En cliquant sur "J'accepte", vous autorisez l'utilisation de cookies, des identifiants d'appareils, des balises web ou d'autres technologies similaires. Vos paramètres peuvent être modifiés dans le navigateur de votre appareil.

Dans certains cas, des intérêts légitimes peuvent être invoqués plutôt qu'un consentement. Vous pouvez en savoir plus à ce sujet dans notre Politique de confidentialité et de cookies.